Hagerstown, MD

10:15 PM EDT on April 22, 2018 (GMT -0400)
Hagerstown Regional-Henson

Weather History for KHGR - December, 2013

Change the Weather History Date:

Friday, December 6, 2013

  Actual Average Record
Temperature  
Mean Temperature 48 °F 37 °F  
Max Temperature 56 °F 44 °F 73 °F (1998)
Min Temperature 40 °F 30 °F 11 °F (2007)
Degree Days  
Heating Degree Days 17 28  
Month to date heating degree days 131 163  
Since 1 July heating degree days 1193 1168  
Cooling Degree Days 0 0  
Month to date cooling degree days 0 0  
Year to date cooling degree days 1133 969  
Moisture  
Dew Point 42 °F    
Average Humidity 93    
Maximum Humidity 100    
Minimum Humidity 86    
Precipitation  
Precipitation 0.55 in 0.10 in 0.63 in (2016)
Month to date precipitation 0.56 0.66  
Year to date precipitation 30.49 37.06  
Sea Level Pressure  
Sea Level Pressure 30.05 in    
Wind  
Wind Speed 8 mph (NNW)    
Max Wind Speed 20 mph    
Max Gust Speed 25 mph    
Visibility 5 miles    
Events Fog , Rain    
T = Trace of Precipitation, MM = Missing Value Source: NWS Daily Summary

Daily Weather History Graph

Daily Weather History Graph

Search for Another Location

Airport or City:

Astronomy

Dec. 06, 2013 Rise Set
Actual Time 7:17 AM EST 4:46 PM EST
Civil Twilight 6:47 AM EST 5:16 PM EST
Nautical Twilight 6:13 AM EST 5:50 PM EST
Astronomical Twilight 5:41 AM EST 6:22 PM EST
Moon 10:22 AM EST (12/6) 9:15 PM EST (12/6)
Length of Visible Light 10h 28m
Length of Day
9h 28m
Waxing Crescent, 19% of the Moon is Illuminated
Dec 6
Waxing Crescent
Dec 9
First Quarter
Dec 17
Full
Dec 25
Last Quarter
Jan 1
New

Hourly Weather History & Observations

Time (EST) Temp. Windchill Dew Point Humidity Pressure Visibility Wind Dir Wind Speed Gust Speed Precip Events Conditions
12:37 AM 54.0 °F - 53.1 °F 97% 29.89 in 2.0 mi ESE 3.5 mph - 0.03 in Rain Light Rain
12:53 AM 55.0 °F - 53.1 °F 93% 29.91 in 2.5 mi SE 6.9 mph - 0.04 in Rain Light Rain
1:03 AM 55.9 °F - 55.0 °F 97% 29.89 in 4.0 mi SSE 5.8 mph - 0.00 in Rain Light Rain
1:18 AM 55.0 °F - 54.0 °F 96% 29.89 in 2.0 mi WNW 4.6 mph - 0.00 in   Overcast
1:26 AM 53.1 °F - 53.1 °F 100% 29.88 in 1.0 mi WNW 3.5 mph - 0.00 in Rain Light Rain
1:34 AM 53.1 °F - 53.1 °F 100% 29.88 in 0.8 mi WNW 3.5 mph - 0.00 in Rain Light Rain
1:53 AM 52.0 °F - 52.0 °F 100% 29.91 in 0.8 mi WNW 4.6 mph - 0.00 in Rain Light Rain
2:05 AM 52.0 °F - 52.0 °F 100% 29.89 in 0.8 mi WNW 5.8 mph - 0.00 in   Overcast
2:20 AM 52.0 °F - 52.0 °F 100% 29.89 in 0.8 mi NW 4.6 mph - 0.00 in   Overcast
2:53 AM 52.0 °F - 52.0 °F 100% 29.93 in 0.5 mi NNW 6.9 mph - 0.00 in Fog Fog
3:06 AM 53.1 °F - 53.1 °F 100% 29.91 in 2.0 mi NNW 11.5 mph - 0.01 in Rain Light Rain
3:13 AM 53.1 °F - 52.0 °F 96% 29.91 in 3.0 mi NW 15.0 mph - 0.01 in Rain Light Rain
3:29 AM 51.1 °F - 48.0 °F 89% 29.91 in 10.0 mi NNW 13.8 mph - 0.01 in   Overcast
3:53 AM 51.1 °F - 48.9 °F 92% 29.95 in 10.0 mi NW 12.7 mph - 0.01 in   Overcast
4:31 AM 50.0 °F - 46.9 °F 89% 29.94 in 10.0 mi NW 9.2 mph - N/A   Overcast
4:53 AM 48.0 °F - 45.0 °F 89% 29.98 in 10.0 mi NW 8.1 mph - N/A   Overcast
5:53 AM 46.9 °F - 44.1 °F 90% 30.02 in 4.0 mi NNW 3.5 mph - 0.05 in Rain Rain
6:02 AM 46.0 °F 42.5 °F 44.1 °F 93% 29.99 in 6.0 mi NW 6.9 mph - 0.00 in Rain Light Rain
6:53 AM 44.1 °F 38.6 °F 43.0 °F 96% 30.05 in 9.0 mi NW 10.4 mph - 0.08 in Rain Light Rain
7:53 AM 43.0 °F 36.4 °F 39.9 °F 89% 30.10 in 5.0 mi NW 12.7 mph - 0.03 in Rain Light Rain
8:03 AM 43.0 °F 35.7 °F 39.9 °F 89% 30.08 in 4.0 mi NW 15.0 mph - 0.01 in Rain Light Rain
8:16 AM 42.1 °F 35.2 °F 39.9 °F 92% 30.09 in 2.5 mi NW 12.7 mph - 0.04 in Rain Light Rain
8:53 AM 42.1 °F 39.2 °F 39.9 °F 92% 30.11 in 4.0 mi NNW 4.6 mph - 0.07 in Rain Light Rain
9:21 AM 42.1 °F 37.7 °F 39.9 °F 92% 30.08 in 10.0 mi NW 6.9 mph - 0.00 in   Overcast
9:29 AM 42.1 °F 38.4 °F 39.9 °F 92% 30.08 in 10.0 mi NW 5.8 mph - 0.00 in   Overcast
9:51 AM 42.8 °F 38.0 °F 39.2 °F 87% 30.11 in 10.0 mi WNW 8.1 mph - 0.00 in   Overcast
9:53 AM 42.1 °F 37.1 °F 39.9 °F 92% 30.14 in 10.0 mi WNW 8.1 mph - 0.00 in   Overcast
10:21 AM 42.1 °F 37.1 °F 39.9 °F 92% 30.13 in 10.0 mi WNW 8.1 mph - N/A   Overcast
10:53 AM 42.1 °F 36.1 °F 39.0 °F 89% 30.14 in 10.0 mi NW 10.4 mph - 0.02 in Rain Light Rain
11:53 AM 43.0 °F 38.8 °F 37.9 °F 82% 30.12 in 10.0 mi NNW 6.9 mph - 0.01 in   Overcast
12:53 PM 42.1 °F 36.1 °F 37.9 °F 85% 30.10 in 6.0 mi NW 10.4 mph - 0.01 in Rain Light Rain
1:53 PM 41.0 °F 36.4 °F 39.0 °F 93% 30.08 in 4.0 mi North 6.9 mph - 0.10 in Rain Rain
2:53 PM 41.0 °F 36.4 °F 39.0 °F 93% 30.08 in 3.0 mi NNW 6.9 mph - 0.03 in Rain Light Rain
3:16 PM 41.0 °F 36.4 °F 39.0 °F 93% 30.07 in 2.0 mi NNW 6.9 mph - 0.05 in Rain Rain
3:29 PM 41.0 °F 37.1 °F 39.0 °F 93% 30.06 in 3.0 mi North 5.8 mph - 0.07 in Rain Light Rain
3:53 PM 39.9 °F 35.1 °F 39.0 °F 97% 30.09 in 5.0 mi North 6.9 mph - 0.11 in Rain Light Rain
4:53 PM 39.9 °F 35.1 °F 39.0 °F 97% 30.12 in 3.0 mi NNW 6.9 mph - 0.09 in Rain Rain
5:18 PM 39.9 °F 34.5 °F 39.0 °F 97% 30.08 in 4.0 mi NNW 8.1 mph - 0.06 in Rain Rain
5:26 PM 39.9 °F 35.1 °F 39.0 °F 97% 30.10 in 4.0 mi NW 6.9 mph - 0.08 in Rain Rain
5:53 PM 39.0 °F 34.8 °F 37.9 °F 96% 30.13 in 5.0 mi North 5.8 mph - 0.15 in Rain Rain
6:26 PM 39.0 °F 31.4 °F 37.9 °F 96% 30.13 in 3.0 mi NW 12.7 mph - 0.09 in Rain Rain
6:33 PM 39.0 °F 33.4 °F 37.9 °F 96% 30.11 in 2.5 mi NNW 8.1 mph - 0.12 in Rain Heavy Rain
6:42 PM 39.0 °F 34.0 °F 37.9 °F 96% 30.13 in 3.0 mi NW 6.9 mph - 0.16 in Rain Rain
6:53 PM 39.0 °F 33.4 °F 37.9 °F 96% 30.18 in 2.5 mi NW 8.1 mph - 0.22 in Rain Heavy Rain
7:05 PM 37.9 °F 32.7 °F 37.9 °F 100% 30.10 in 3.0 mi North 6.9 mph - 0.04 in Rain Rain
7:31 PM 37.9 °F 32.7 °F 37.9 °F 100% 30.11 in 5.0 mi North 6.9 mph - 0.10 in Rain Rain
7:53 PM 37.9 °F 30.9 °F 37.0 °F 97% 30.17 in 4.0 mi NNE 10.4 mph - 0.16 in Rain Rain
8:01 PM 37.9 °F 30.9 °F 36.0 °F 93% 30.13 in 5.0 mi NE 10.4 mph - 0.01 in Rain Rain
8:53 PM 37.0 °F 32.4 °F 35.1 °F 93% 30.17 in 8.0 mi North 5.8 mph - 0.15 in Rain Light Rain
9:53 PM 36.0 °F 29.0 °F 34.0 °F 93% 30.21 in 5.0 mi North 9.2 mph - 0.14 in Rain Rain
10:25 PM 36.0 °F 29.0 °F 34.0 °F 93% 30.16 in 7.0 mi North 9.2 mph - 0.06 in Rain Light Rain
10:53 PM 35.1 °F 28.6 °F 33.1 °F 92% 30.22 in 6.0 mi NNE 8.1 mph - 0.11 in Rain Light Rain
11:53 PM 35.1 °F 29.3 °F 33.1 °F 92% 30.20 in 10.0 mi North 6.9 mph - 0.01 in   Overcast